Find Starlink 36934

NORAD ID: 68279 Int'l Des: 2026-055 Owner: SPXS Country: US Constellation: starlink operational
LEOCIRCULAR

Current View

Loading 3D Globe...

About Starlink 36934

Starlink 36934 (NORAD 68279) is a starlink constellation satellite (v2 mini) launched Mar 19, 2026 by SPXS of US. It operates in LEO, CIRCULAR orbit with a mass of 575.00 kg.

About Starlink 36934

Description loading...

Upcoming Passes

Passes for default location (London). Set your location on the main map for personalized predictions.

Altitude History

Loading altitude history...

Two-Line Element Set

1 68279U 26055T 26168.42111478 .00014359 00000-0 43512-3 0 9991
2 68279 53.1562 214.3686 0000945 69.6057 290.5047 15.34413231 15221
Epoch: Jun 17, 2026 • Age: 24 hours

Current Status

Altitude 464.5 km
Velocity 7.64 km/s
Sub-Earth Point 34.64°N, 172.16°W
Launch Date Mar 19, 2026
Age 0.2 years
Type internet

Technical Details

Classification Payload
Mass 575.00 kg
Dry Mass 530.00 kg
Total Mass 575.00 kg
Length 0.30 m
Diameter 4.10 m
Span 29.00 m
Shape Box + pan
Manufacturer SPXS
Bus Type Starlink V2MO
Phase Status In Orbit
Owner/State SPXS/US

Most Searched